User: anonymous   Login
Location: Alberta Star Party
(51.6612°N, 112.9089°W)
Time: 11:18:00
(UTC-07:00)
Language:

AO-Echo - Orbit

View from above orbital plane
View from above orbital plane
View from above satellite
View from above satellite

Ground track
Ground track

The orbit data is extracted from the following two-line orbital elements,

1 28375U 04025K   18048.81530593 +.00000004 +00000-0 +14702-4 0  9993
2 28375 098.3786 342.3957 0081306 262.8835 096.3104 14.41875542717158
Epoch (UTC): 17 February 2018 19:34:02
Eccentricity: 0.0081306
inclination: 98.3786°
perigee height: 694 km
apogee height: 810 km
right ascension of ascending node: 342.3957°
argument of perigee: 262.8835°
revolutions per day: 14.41875542
mean anomaly at epoch: 96.3104°
orbit number at epoch: 71715

The dashed part of the orbit path shows where the satellite is in the earth's shadow,  

DLR